logo dgac
Lunes 27 de Septiembre del 2021
Buscar por aerodromo o helipuerto
Ingrese nombre de aeródromo, localidad o designador OACI:

Aeródromo: Teniente Vidal (PUB) (SCCY)

Ubicación: Coyhaique, XI Región, Chile (45º 35' 37'' S, 72º 06' 19'' W) Ver ubicación en el mapa

Pistas

Orientación Dimensión Pendiente Superficie Resistencia APCH THR RWY PAPI
03/21 1546 x 30 FM THR 21 - 246m CONC 1.300 m ASPH PCN 30 F/B/X/T No No
Horas de operación HJ
Elevación 311 m / 1020 ft
Otra Información Adm : D.G.A.C.
Uso : PUB
ubicado 5 km SW Coyhaique
TEL/FAX 67 2235003 CEL TWR/AFIS +56 957082670
email : afis.ttevidal@dgac.gob.cl

Otra información ver AIP-Chile Volumen I AD 3.9-3.12-C

CCCM/FCCV Descargar
andera de Chile
Mapa de Teniente Vidal (PUB) (SCCY)

Último METAR

METAR SCCY 270000Z 06006KT 010V110 9999 -SHRA BKN033 05/02 Q1019

Último TAF

TAF SCCY 261036Z 2612/2624 03005KT 9999 SCT040 TN01/2612Z TX10/2618Z BECMG 2614/2616 28010KT

Últimas fotos cámaras

Imagen aerodromo Teniente Vidal (PUB) (SCCY) N-Este tomada el 27-09-2021 12:37:11 Imagen aerodromo Teniente Vidal (PUB) (SCCY) Sur tomada el 27-09-2021 12:35:43

Último NOTAM

C3562/21 NOTAMN Q)SCTZ/QFUAR/IV/NBO/A/000/999/4536S07206W005 A)SCCY B)2108131721 C)PERM E)FUEL 100LL Y JP1 AVBL COOR +569-98790312